Tracking 30160 objects as of 13-Feb-2025
HD Live streaming from Space Station
objects crossing your sky now

STARLINK-4278

Track STARLINK-4278 now!
10-day predictions
STARLINK-4278 is classified as:


NORAD ID: 53182
Int'l Code: 2022-083BC
Perigee: 546.2 km
Apogee: 547.7 km
Inclination: 53.2 °
Period: 95.4 minutes
Semi major axis: 6917 km
RCS: Unknown
Launch date: July 17, 2022
Source: United States (US)
Launch site: AIR FORCE EASTERN TEST RANGE (AFETR)
Your satellite tracking list
Your tracking list is empty




NASA's NSSDC Master Catalog

Two Line Element Set (TLE):
1 53182U 22083BC  25044.42732150  .00010896  00000-0  70223-3 0  9994
2 53182  53.2167  86.5794 0001071  91.7580 268.3535 15.08809208142935
Source of the keplerian elements: AFSPC